[[{"header":{"parameterUnit":"m.s-1","parameterCategory":1,"la1":30.2991,"la2":30.254,"lo1":-89.0895,"lo2":-89.0444,"dy":0.0017,"dx":0.0017,"nx":28,"ny":28,"refTime":"2024-10-17T21:00:00:Z","depth":0,"parameterNumber":2,"parameterNumberName":"U-component_of_WINDS"},"data":[0,0,0,0,0,0,0,0,0,0,0,0,0,0,0,0,0,0,0,0,0,0,0,0,0,0,0,0,0,0,0,0,0,0,0,0,0,0,0,0,0,0,0,0,0,0,0,0,0,0,0,0,0,0,0,0,0,0,-4.9036,-4.9036,0,-4.8997,-4.8997,-4.8997,-4.8788,-4.8783,-4.8778,-4.8774,-4.8737,-4.8741,-4.8744,0,0,0,0,0,0,0,0,0,0,0,0,0,-4.8933,-4.8936,-4.9036,-4.9036,-4.9035,-4.8998,-4.8997,-4.8996,-4.8789,-4.8783,-4.8777,-4.8771,-4.8736,-4.874,-4.8745,0,0,0,0,0,0,0,0,0,0,0,0,0,-4.8944,-4.8937,-4.9036,-4.8927,-4.8917,-4.8998,-4.8997,-4.8996,-4.879,-4.8783,-4.8775,-4.8768,-4.8734,-4.874,-4.8745,-4.8929,0,0,-4.8762,-4.8764,0,0,0,0,0,0,0,0,-4.8944,-4.8948,-4.8944,-4.8935,-4.8924,-4.889,-4.8947,-4.8974,-4.8792,-4.8839,-4.8773,-4.8765,-4.8794,-4.8794,-4.8803,-4.8927,-4.8925,-4.8762,-4.8766,-4.8768,-4.877,0,0,0,0,0,0,0,-4.8943,-4.8949,-4.9021,-4.8944,-4.8932,-4.8881,-4.8874,-4.8951,-4.8859,-4.8834,-4.8819,-4.8817,-4.8787,-4.8799,-4.8801,-4.8925,-4.8762,-4.8767,-4.8771,-4.8773,-4.9195,-4.9202,0,0,0,0,0,0,-4.8958,-4.895,-4.9022,-4.902,-4.8915,-4.8889,-4.8881,-4.8908,-4.8857,-4.8842,-4.8823,-4.8807,-4.8793,-4.8795,-4.8799,-4.9008,-4.8768,-4.8773,-4.8776,-4.9187,-4.9197,-4.9205,0,0,0,0,0,0,-4.8956,-4.8966,-4.9024,-4.8981,-4.8984,-4.8898,-4.8931,-4.8912,-4.8922,-4.8849,-4.8832,-4.8852,-4.8787,-4.8791,-4.8897,-4.9004,-4.8776,-4.8781,-4.9178,-4.919,-4.9201,-4.9431,0,0,0,0,0,0,-4.8954,-4.8967,-4.9035,-4.8984,-4.8987,-4.9123,-4.8937,-4.8916,-4.8932,-4.8911,-4.8871,-4.8858,-4.8782,-4.889,-4.8903,-4.9008,-4.8785,-4.9168,-4.9183,-4.9197,-4.9413,-4.9449,-4.948,0,0,0,0,0,-4.8951,-4.9103,-4.904,-4.905,-4.9071,-4.9129,-4.9131,-4.904,-4.8942,-4.901,-4.8963,-4.8859,-4.8991,-4.8903,-4.8915,-4.9024,-4.9161,-4.9179,-4.9196,-4.9398,-4.9442,-4.9479,0,0,0,0,0,0,-4.9171,-4.9094,-4.9023,-4.9163,-4.9154,-4.9094,-4.9177,-4.9089,-4.9109,-4.9088,-4.8975,-4.8968,-4.909,-4.9068,-4.8971,-4.9198,-4.9058,-4.9079,-4.9208,-4.9248,-4.9281,-4.9283,-4.879,0,0,0,0,0,-4.9235,-4.9288,-4.9219,-4.9348,-4.9347,-4.9264,-4.9286,-4.9216,-4.9203,-4.9198,-4.9159,-4.9151,-4.919,-4.9218,-4.925,-4.941,-4.9397,-4.949,-4.9523,-4.9551,-4.957,-4.9651,-4.9691,-4.9264,-4.9264,-4.9263,0,0,-4.9369,-4.9334,-4.9374,-4.9391,-4.9376,-4.9434,-4.9262,-4.9331,-4.9372,-4.9209,-4.9305,-4.9277,-4.926,-4.9393,-4.945,-4.9378,-4.9686,-4.9574,-4.9596,-4.96,-4.9673,-4.9714,-4.975,-4.9276,-4.9274,-4.9272,0,0,-4.9642,-4.9621,-4.9725,-4.9714,-4.9692,-4.9636,-4.9661,-4.9615,-4.9589,-4.9684,-4.9562,-4.961,-4.9681,-4.9673,-4.9679,-4.9949,-4.9854,-4.9963,-5.0136,-5.0216,-5.025,-5.0279,-5.0373,-5.0409,-4.9983,-4.9984,-4.9984,0,-4.9811,-4.9892,-4.9791,-4.9867,-4.9877,-4.9731,-4.9836,-4.983,-4.9822,-4.9832,-4.9752,-4.9836,-4.9815,-4.9943,-5.0009,-5.002,-5.0044,-4.9966,-5.0253,-5.0281,-5.0307,-5.0396,-5.0432,-4.9997,-4.9995,-4.9994,-4.9993,0,-5.01,-5.0158,-5.0245,-5.0238,-5.0259,-5.035,-5.0263,-5.0296,-5.0225,-5.0177,-5.0276,-5.0245,-5.0268,-5.0293,-5.0225,-5.0412,-5.0368,-5.0273,-5.013,-5.0363,-5.0444,-5.0477,-5.0016,-5.0011,-5.0007,-5.0004,0,0,-5.0509,-5.0444,-5.0478,-5.0472,-5.0438,-5.0481,-5.0565,-5.0586,-5.0616,-5.0616,-5.0683,-5.0746,-5.0656,-5.0663,-5.0593,-5.0664,-5.0878,-5.0559,-5.0557,-5.0618,-5.108,-5.115,-5.1191,-5.0815,-5.0821,-5.0826,-5.108,0,-5.0767,-5.0905,-5.0816,-5.0968,-5.102,-5.0882,-5.0955,-5.0942,-5.09,-5.0939,-5.0892,-5.0938,-5.0818,-5.082,-5.0885,-5.0838,-5.0968,-5.0819,-5.0876,-5.0879,-5.0882,-5.1234,-5.1308,-5.155,-5.1112,-5.1117,-5.1121,0,-5.1087,-5.1099,-5.1256,-5.1209,-5.1228,-5.1295,-5.1306,-5.1345,-5.1328,-5.1292,-5.13,-5.1212,-5.1291,-5.1152,-5.126,-5.116,-5.1178,-5.116,-5.1167,-5.1166,-5.1013,-5.1241,-5.1624,-5.166,-5.117,-5.1166,-5.1163,0,-5.1367,-5.1422,-5.1521,-5.1522,-5.1471,-5.1521,-5.1503,-5.1478,-5.1496,-5.1507,-5.1517,-5.1539,-5.155,-5.1568,-5.1488,-5.1395,-5.1606,-5.1461,-5.1578,-5.1581,-5.1627,-5.1625,-5.2016,-5.1644,-5.1643,-5.1642,-5.1642,0,-5.1663,-5.1764,-5.1646,-5.1708,-5.1816,-5.1714,-5.1825,-5.1792,-5.1772,-5.1825,-5.1708,-5.1761,-5.1653,-5.1695,-5.1634,-5.1731,-5.1738,-5.1711,-5.1693,-5.172,-5.1723,-5.1729,-5.1709,-5.1652,-5.165,-5.1648,-5.1646,0,-5.1993,-5.1918,-5.2017,-5.1961,-5.1949,-5.2032,-5.1984,-5.2039,-5.1989,-5.2057,-5.2068,-5.199,-5.2033,-5.1956,-5.199,-5.1948,-5.2084,-5.2042,-5.209,-5.2076,-5.2197,-5.2186,-5.2604,-5.2652,-5.2252,-5.2256,-5.2259,0,-5.2186,-5.2259,-5.2211,-5.2237,-5.2225,-5.2269,-5.2286,-5.2189,-5.2212,-5.2198,-5.2255,-5.2288,-5.2309,-5.2385,-5.2332,-5.2357,-5.2313,-5.2457,-5.2316,-5.234,-5.2312,-5.2308,-5.2314,-5.2486,-5.2491,-5.2495,-5.2498,0,-5.2536,-5.2494,-5.2522,-5.2538,-5.2561,-5.257,-5.2569,-5.2598,-5.2495,-5.2527,-5.2568,-5.2585,-5.2619,-5.2653,-5.2666,-5.2647,-5.2557,-5.2544,-5.2571,-5.2598,-5.2622,-5.2609,-5.2166,-5.2534,-5.253,-5.2528,-5.2526,-5.2524,-5.28,-5.2859,-5.2833,-5.2868,-5.2857,-5.286,-5.2908,-5.2863,-5.2896,-5.2914,-5.2856,-5.2912,-5.2892,-5.2899,-5.2891,-5.2934,-5.2869,-5.2911,-5.2921,-5.2932,-5.295,-5.2618,-5.2936,-5.2935,-5.2934,-5.2933,-5.2932,0,-5.3141,-5.3118,-5.3151,-5.3153,-5.3181,-5.3092,-5.3087,-5.3117,-5.3166,-5.3156,-5.3178,-5.3227,-5.3259,-5.3209,-5.3234,-5.3277,-5.3236,-5.3287,-5.3281,-5.3278,-5.3007,-5.2979,-5.332,-5.332,-5.3319,-5.3319,-5.3319,-5.3319,-5.3322,-5.3415,-5.3371,-5.3458,-5.3434,-5.3486,-5.349,-5.3492,-5.3483,-5.3541,-5.3567,-5.3534,-5.3507,-5.3529,-5.3555,-5.354,-5.3553,-5.3618,-5.3589,-5.3336,-5.3298,-5.3261,-5.3234,-5.3623,-5.3623,-5.3855,-5.3858,-5.3859]},{"header":{"parameterUnit":"m.s-1","parameterCategory":1,"la1":30.2991,"la2":30.254,"lo1":-89.0895,"lo2":-89.0444,"dy":0.0017,"dx":0.0017,"nx":28,"ny":28,"refTime":"2024-10-17T21:00:00:Z","depth":0,"parameterNumber":3,"parameterNumberName":"V-component_of_WINDS"},"data":[0,0,0,0,0,0,0,0,0,0,0,0,0,0,0,0,0,0,0,0,0,0,0,0,0,0,0,0,0,0,0,0,0,0,0,0,0,0,0,0,0,0,0,0,0,0,0,0,0,0,0,0,0,0,0,0,0,0,-2.0346,-2.0346,0,-2.0378,-2.0379,-2.0379,-2.0383,-2.0383,-2.0383,-2.0383,-2.0414,-2.0415,-2.0417,0,0,0,0,0,0,0,0,0,0,0,0,0,-2.0284,-2.0285,-2.0346,-2.0346,-2.0347,-2.0378,-2.0379,-2.0379,-2.0384,-2.0383,-2.0383,-2.0382,-2.0414,-2.0415,-2.0417,0,0,0,0,0,0,0,0,0,0,0,0,0,-2.0313,-2.0286,-2.0346,-2.0353,-2.0354,-2.0378,-2.0379,-2.0379,-2.0384,-2.0383,-2.0383,-2.0382,-2.0414,-2.0415,-2.0417,-2.0436,0,0,-2.0422,-2.0423,0,0,0,0,0,0,0,0,-2.0312,-2.0316,-2.0351,-2.0352,-2.0353,-2.0376,-2.0369,-2.0398,-2.0384,-2.0372,-2.0383,-2.0382,-2.0402,-2.0405,-2.0412,-2.0438,-2.0439,-2.0422,-2.0423,-2.0424,-2.0424,0,0,0,0,0,0,0,-2.031,-2.0314,-2.0359,-2.0352,-2.0353,-2.0353,-2.0357,-2.0374,-2.0389,-2.0373,-2.0374,-2.0377,-2.0402,-2.041,-2.0412,-2.044,-2.0422,-2.0424,-2.0425,-2.0425,-2.048,-2.0481,0,0,0,0,0,0,-2.0307,-2.0312,-2.0358,-2.036,-2.0331,-2.0355,-2.0359,-2.0369,-2.0389,-2.0392,-2.0378,-2.0377,-2.0407,-2.041,-2.0414,-2.0436,-2.0424,-2.0426,-2.0427,-2.048,-2.0481,-2.0481,0,0,0,0,0,0,-2.0305,-2.0311,-2.0356,-2.0336,-2.0342,-2.0356,-2.0368,-2.037,-2.0378,-2.0393,-2.0395,-2.0383,-2.0407,-2.0411,-2.043,-2.0437,-2.0426,-2.0428,-2.0479,-2.048,-2.0481,-2.0482,0,0,0,0,0,0,-2.0304,-2.031,-2.0319,-2.0336,-2.0343,-2.0374,-2.0369,-2.0371,-2.0381,-2.0381,-2.0398,-2.04,-2.0407,-2.0428,-2.0432,-2.0439,-2.0429,-2.0479,-2.048,-2.0481,-2.0481,-2.0483,-2.0484,0,0,0,0,0,-2.0301,-2.0318,-2.0319,-2.0325,-2.0354,-2.0374,-2.0378,-2.0385,-2.0382,-2.039,-2.0398,-2.04,-2.0436,-2.0429,-2.0434,-2.0442,-2.0478,-2.048,-2.048,-2.0481,-2.0482,-2.0484,0,0,0,0,0,0,-2.0302,-2.0321,-2.0322,-2.0346,-2.0358,-2.0375,-2.0385,-2.0387,-2.0401,-2.04,-2.0409,-2.0412,-2.043,-2.0438,-2.0431,-2.0461,-2.0457,-2.0459,-2.0455,-2.0457,-2.0458,-2.0455,-2.0431,0,0,0,0,0,-2.0304,-2.032,-2.0335,-2.0354,-2.036,-2.0371,-2.038,-2.0385,-2.0398,-2.0403,-2.0414,-2.0426,-2.044,-2.0449,-2.0462,-2.0482,-2.0485,-2.049,-2.0491,-2.0492,-2.0494,-2.0502,-2.0504,-2.0484,-2.0484,-2.0484,0,0,-2.0311,-2.0323,-2.0332,-2.0354,-2.0365,-2.0379,-2.0376,-2.0392,-2.0402,-2.0406,-2.0424,-2.0432,-2.0446,-2.0464,-2.0473,-2.0472,-2.0499,-2.0493,-2.0494,-2.0495,-2.0504,-2.0505,-2.0507,-2.0485,-2.0485,-2.0485,0,0,-2.0328,-2.034,-2.0356,-2.0366,-2.0381,-2.0388,-2.0391,-2.0407,-2.0412,-2.0431,-2.0433,-2.0444,-2.0469,-2.0478,-2.0485,-2.0503,-2.0504,-2.0507,-2.0513,-2.0522,-2.0523,-2.0525,-2.0529,-2.0531,-2.0509,-2.0509,-2.0509,0,-2.0334,-2.0356,-2.0364,-2.0379,-2.0387,-2.0391,-2.0406,-2.0415,-2.0433,-2.0439,-2.0437,-2.0465,-2.0475,-2.0495,-2.0499,-2.0505,-2.0508,-2.0505,-2.0522,-2.0524,-2.0525,-2.053,-2.0532,-2.0509,-2.0509,-2.0509,-2.0509,0,-2.0361,-2.0376,-2.0387,-2.0404,-2.0414,-2.0429,-2.0437,-2.0446,-2.0449,-2.0456,-2.0473,-2.0484,-2.0499,-2.0504,-2.0508,-2.0524,-2.0522,-2.0521,-2.0517,-2.0527,-2.0532,-2.0534,-2.0509,-2.0509,-2.0509,-2.0509,0,0,-2.0382,-2.0401,-2.0405,-2.0412,-2.0427,-2.0439,-2.0452,-2.0467,-2.0473,-2.0485,-2.0496,-2.0515,-2.0513,-2.0522,-2.0526,-2.0534,-2.0545,-2.0531,-2.0532,-2.0533,-2.0561,-2.0561,-2.0563,-2.0545,-2.0546,-2.0546,-2.0559,0,-2.0401,-2.0426,-2.0432,-2.0453,-2.0466,-2.0468,-2.0479,-2.0489,-2.0495,-2.0506,-2.0512,-2.0525,-2.0523,-2.0527,-2.0535,-2.0542,-2.055,-2.0541,-2.0554,-2.0555,-2.0551,-2.0566,-2.0567,-2.0579,-2.0561,-2.0562,-2.0562,0,-2.0427,-2.0438,-2.0461,-2.0472,-2.0478,-2.0488,-2.05,-2.0511,-2.0521,-2.0525,-2.0533,-2.0536,-2.0548,-2.0543,-2.056,-2.0553,-2.0559,-2.0563,-2.0563,-2.0565,-2.0559,-2.0567,-2.0584,-2.0585,-2.0565,-2.0565,-2.0565,0,-2.0438,-2.0459,-2.0475,-2.0481,-2.0495,-2.0502,-2.0508,-2.0518,-2.0525,-2.0535,-2.054,-2.0551,-2.0557,-2.0566,-2.0571,-2.0567,-2.0586,-2.0582,-2.0588,-2.0588,-2.0593,-2.0592,-2.061,-2.0597,-2.0597,-2.0597,-2.0597,0,-2.0458,-2.0471,-2.0479,-2.0489,-2.0503,-2.0509,-2.0522,-2.0528,-2.0536,-2.0546,-2.0548,-2.0557,-2.0563,-2.0572,-2.0576,-2.0588,-2.0592,-2.0594,-2.0595,-2.0593,-2.0593,-2.0597,-2.0596,-2.0598,-2.0597,-2.0597,-2.0597,0,-2.0473,-2.0479,-2.0496,-2.0507,-2.051,-2.052,-2.0529,-2.0537,-2.0542,-2.0554,-2.0557,-2.0565,-2.0576,-2.0581,-2.0595,-2.0597,-2.0611,-2.0611,-2.0607,-2.0607,-2.0613,-2.0612,-2.0634,-2.0636,-2.0622,-2.0622,-2.0623,0,-2.0485,-2.0495,-2.0507,-2.0513,-2.0519,-2.053,-2.0537,-2.0542,-2.0549,-2.056,-2.0566,-2.0577,-2.0586,-2.0603,-2.0609,-2.0619,-2.0619,-2.0626,-2.0621,-2.0619,-2.0618,-2.0617,-2.0618,-2.0627,-2.0627,-2.0627,-2.0627,0,-2.0506,-2.0508,-2.0518,-2.0528,-2.0536,-2.0545,-2.0554,-2.0558,-2.0564,-2.0572,-2.0583,-2.0589,-2.0602,-2.0612,-2.0622,-2.0627,-2.0628,-2.0629,-2.0631,-2.0629,-2.0626,-2.0627,-2.0609,-2.0628,-2.0628,-2.0628,-2.0628,-2.0628,-2.0519,-2.0527,-2.0536,-2.0546,-2.0553,-2.056,-2.0568,-2.0573,-2.0582,-2.0593,-2.0595,-2.0606,-2.0614,-2.0627,-2.0632,-2.064,-2.0638,-2.0641,-2.0642,-2.0643,-2.0642,-2.0625,-2.0642,-2.0642,-2.0642,-2.0642,-2.0642,0,-2.0539,-2.0544,-2.0553,-2.0564,-2.0572,-2.0571,-2.058,-2.0586,-2.0596,-2.0603,-2.0611,-2.0622,-2.0631,-2.0637,-2.0646,-2.0651,-2.0652,-2.0653,-2.0653,-2.0654,-2.0644,-2.0641,-2.0653,-2.0653,-2.0653,-2.0653,-2.0653,-2.0653,-2.055,-2.0563,-2.0565,-2.058,-2.0585,-2.0596,-2.06,-2.0606,-2.0612,-2.0624,-2.0632,-2.0635,-2.0642,-2.0651,-2.0658,-2.066,-2.0663,-2.0664,-2.0666,-2.0656,-2.0655,-2.0654,-2.0651,-2.0665,-2.0665,-2.0675,-2.0675,-2.0675]}]]